Time,TemperatureF,DewpointF,PressureIn,WindDirection,WindDirectionDegrees,WindSpeedMPH,WindSpeedGustMPH,Humidity,HourlyPrecipIn,Conditions,Clouds,dailyrainin,SoftwareType,DateUTC
2013-10-04 01:01:00,68.0,64.0,29.95,SSE,165,1.0,3.0,88,0.00,,,0.12,,2013-10-04 05:01:00,
2013-10-04 01:29:00,68.0,64.0,29.94,SSE,147,0.0,4.0,88,0.00,,,0.12,,2013-10-04 05:29:00,
2013-10-04 01:56:00,68.0,65.0,29.94,SSE,162,0.0,3.0,90,0.00,,,0.12,,2013-10-04 05:56:00,
2013-10-04 02:19:00,68.0,65.0,29.94,SSE,148,1.0,2.0,90,0.00,,,0.12,,2013-10-04 06:19:00,
2013-10-04 02:27:00,68.0,65.0,29.94,SSW,205,0.0,2.0,90,0.00,,,0.12,,2013-10-04 06:27:00,
2013-10-04 02:56:00,67.0,64.0,29.95,SW,232,0.0,2.0,90,0.00,,,0.12,,2013-10-04 06:56:00,
2013-10-04 03:18:00,67.0,64.0,29.95,South,187,0.0,1.0,91,0.00,,,0.12,,2013-10-04 07:18:00,
2013-10-04 03:28:00,67.0,64.0,29.95,SW,231,0.0,2.0,91,0.00,,,0.12,,2013-10-04 07:28:00,
2013-10-04 03:47:00,67.0,64.0,29.95,SW,215,0.0,2.0,91,0.00,,,0.12,,2013-10-04 07:47:00,
2013-10-04 03:55:00,67.0,64.0,29.95,SSW,205,0.0,1.0,91,0.00,,,0.12,,2013-10-04 07:55:00,
2013-10-04 04:18:00,66.0,63.0,29.95,SSW,198,0.0,0.0,91,0.00,,,0.12,,2013-10-04 08:18:00,
2013-10-04 04:27:00,66.0,64.0,29.94,SE,143,0.0,2.0,92,0.00,,,0.12,,2013-10-04 08:27:00,
2013-10-04 04:55:00,67.0,64.0,29.94,SSW,207,0.0,3.0,91,0.00,,,0.12,,2013-10-04 08:55:00,
2013-10-04 05:17:00,67.0,64.0,29.94,West,278,1.0,3.0,91,0.00,,,0.12,,2013-10-04 09:17:00,
2013-10-04 05:27:00,67.0,64.0,29.94,SSW,205,0.0,3.0,91,0.00,,,0.12,,2013-10-04 09:27:00,
2013-10-04 05:49:00,67.0,64.0,29.94,South,190,1.0,3.0,90,0.00,,,0.12,,2013-10-04 09:49:00,
2013-10-04 05:58:00,67.0,64.0,29.94,SSW,201,1.0,5.0,90,0.00,,,0.12,,2013-10-04 09:58:00,
2013-10-04 06:21:00,67.0,64.0,29.94,SSW,207,1.0,3.0,90,0.00,,,0.12,,2013-10-04 10:21:00,
2013-10-04 06:30:00,67.0,64.0,29.95,SSW,200,1.0,4.0,90,0.00,,,0.12,,2013-10-04 10:30:00,
2013-10-04 06:50:00,67.0,64.0,29.95,SW,222,1.0,2.0,90,0.00,,,0.12,,2013-10-04 10:50:00,
2013-10-04 06:58:00,67.0,64.0,29.96,South,191,1.0,3.0,90,0.00,,,0.12,,2013-10-04 10:58:00,
2013-10-04 07:20:00,67.0,64.0,29.96,South,191,1.0,4.0,90,0.00,,,0.12,,2013-10-04 11:20:00,
2013-10-04 07:30:00,67.0,64.0,29.96,South,186,1.0,4.0,90,0.00,,,0.12,,2013-10-04 11:30:00,
2013-10-04 07:57:00,67.0,64.0,29.97,South,181,0.0,4.0,89,0.00,,,0.12,,2013-10-04 11:57:00,
2013-10-04 08:20:00,67.0,64.0,29.98,SSW,211,1.0,3.0,90,0.00,,,0.12,,2013-10-04 12:20:00,
2013-10-04 08:30:00,67.0,64.0,29.99,South,176,1.0,4.0,91,0.01,,,0.13,,2013-10-04 12:30:00,
2013-10-04 08:49:00,67.0,65.0,29.99,West,267,2.0,6.0,92,0.01,,,0.13,,2013-10-04 12:49:00,
2013-10-04 08:57:00,67.0,65.0,29.99,SSW,207,1.0,4.0,92,0.01,,,0.13,,2013-10-04 12:57:00,
2013-10-04 09:20:00,67.0,65.0,29.99,SSW,203,0.0,3.0,92,0.02,,,0.14,,2013-10-04 13:20:00,
2013-10-04 09:29:00,67.0,65.0,29.99,South,188,0.0,3.0,92,0.01,,,0.14,,2013-10-04 13:29:00,
2013-10-04 09:49:00,67.0,65.0,29.99,SSE,166,0.0,5.0,93,0.01,,,0.14,,2013-10-04 13:49:00,
2013-10-04 10:00:00,67.0,65.0,29.99,SSW,198,0.0,2.0,93,0.01,,,0.14,,2013-10-04 14:00:00,
2013-10-04 10:20:00,67.0,65.0,29.99,South,186,0.0,1.0,92,0.00,,,0.14,,2013-10-04 14:20:00,
2013-10-04 10:29:00,68.0,66.0,29.99,SSW,211,0.0,2.0,92,0.00,,,0.14,,2013-10-04 14:29:00,
2013-10-04 10:49:00,68.0,66.0,29.98,ESE,123,1.0,3.0,92,0.00,,,0.14,,2013-10-04 14:49:00,
2013-10-04 11:01:00,68.0,66.0,29.99,SSW,212,0.0,1.0,92,0.00,,,0.14,,2013-10-04 15:01:00,
2013-10-04 11:20:00,69.0,66.0,30.00,West,274,0.0,2.0,91,0.00,,,0.14,,2013-10-04 15:20:00,
2013-10-04 11:30:00,70.0,67.0,30.01,SSW,203,1.0,6.0,90,0.00,,,0.14,,2013-10-04 15:30:00,
2013-10-04 11:49:00,70.0,66.0,30.00,WNW,293,2.0,6.0,88,0.00,,,0.14,,2013-10-04 15:49:00,
2013-10-04 12:01:00,70.0,67.0,29.99,WSW,249,0.0,4.0,89,0.00,,,0.14,,2013-10-04 16:01:00,
2013-10-04 12:21:00,69.0,66.0,29.98,SE,137,0.0,5.0,89,0.00,,,0.14,,2013-10-04 16:21:00,
2013-10-04 12:30:00,69.0,66.0,29.98,SSW,195,0.0,4.0,90,0.01,,,0.03,,2013-10-04 16:30:00,
2013-10-04 12:50:00,70.0,67.0,29.99,SW,221,0.0,4.0,91,0.01,,,0.03,,2013-10-04 16:50:00,
2013-10-04 13:01:00,71.0,68.0,30.01,WSW,250,0.0,2.0,89,0.01,,,0.03,,2013-10-04 17:01:00,
2013-10-04 13:21:00,71.0,67.0,30.01,NNE,12,0.0,3.0,88,0.01,,,0.03,,2013-10-04 17:21:00,
2013-10-04 13:30:00,72.0,67.0,30.01,SSW,198,0.0,3.0,84,0.00,,,0.03,,2013-10-04 17:30:00,
2013-10-04 14:04:00,74.0,68.0,30.00,SW,217,0.0,1.0,82,0.00,,,0.03,,2013-10-04 18:04:00,
2013-10-04 14:23:00,74.0,68.0,29.99,ESE,114,0.0,2.0,83,0.00,,,0.03,,2013-10-04 18:23:00,
2013-10-04 14:32:00,75.0,69.0,29.98,East,85,0.0,2.0,82,0.00,,,0.03,,2013-10-04 18:32:00,
2013-10-04 14:51:00,76.0,69.0,29.98,West,274,0.0,3.0,80,0.00,,,0.03,,2013-10-04 18:51:00,
2013-10-04 14:56:00,75.0,69.0,29.97,East,98,0.0,1.0,81,0.00,,,0.03,,2013-10-04 18:56:00,
2013-10-04 15:12:00,75.0,69.0,29.97,West,274,0.0,3.0,83,0.00,,,0.03,,2013-10-04 19:12:00,
2013-10-04 15:22:00,74.0,70.0,29.97,SSE,151,0.0,1.0,86,0.01,,,0.04,,2013-10-04 19:22:00,
2013-10-04 15:43:00,74.0,70.0,29.96,ESE,110,0.0,1.0,87,0.01,,,0.04,,2013-10-04 19:43:00,
2013-10-04 15:53:00,75.0,71.0,29.97,SSW,193,1.0,2.0,86,0.01,,,0.04,,2013-10-04 19:53:00,
2013-10-04 16:11:00,75.0,70.0,29.96,SSW,209,0.0,2.0,85,0.01,,,0.04,,2013-10-04 20:11:00,
2013-10-04 16:22:00,75.0,70.0,29.96,SSE,155,2.0,6.0,84,0.00,,,0.04,,2013-10-04 20:22:00,
2013-10-04 16:53:00,74.0,68.0,29.96,SW,218,2.0,5.0,82,0.00,,,0.04,,2013-10-04 20:53:00,
2013-10-04 17:12:00,74.0,68.0,29.96,SE,145,0.0,2.0,83,0.00,,,0.04,,2013-10-04 21:12:00,
2013-10-04 17:22:00,74.0,69.0,29.96,South,188,0.0,2.0,85,0.00,,,0.04,,2013-10-04 21:22:00,
2013-10-04 17:54:00,72.0,67.0,29.97,SSE,160,2.0,5.0,84,0.00,,,0.04,,2013-10-04 21:54:00,
2013-10-04 18:12:00,72.0,68.0,29.97,SSE,150,0.0,1.0,86,0.00,,,0.04,,2013-10-04 22:12:00,
2013-10-04 18:23:00,71.0,67.0,29.97,SSE,158,1.0,4.0,87,0.00,,,0.04,,2013-10-04 22:23:00,
2013-10-04 18:43:00,71.0,67.0,29.97,SSE,162,1.0,4.0,86,0.00,,,0.04,,2013-10-04 22:43:00,
2013-10-04 18:53:00,70.0,66.0,29.96,ESE,122,0.0,3.0,86,0.00,,,0.04,,2013-10-04 22:53:00,
2013-10-04 19:12:00,70.0,66.0,29.97,SSW,205,0.0,1.0,86,0.00,,,0.04,,2013-10-04 23:12:00,
2013-10-04 19:22:00,70.0,66.0,29.97,SE,128,0.0,0.0,86,0.00,,,0.04,,2013-10-04 23:22:00,
2013-10-04 19:53:00,69.0,65.0,29.98,SE,142,0.0,2.0,87,0.00,,,0.04,,2013-10-04 23:53:00,
2013-10-04 20:12:00,69.0,65.0,29.98,SSW,207,2.0,4.0,86,0.00,,,0.04,,2013-10-05 00:12:00,
2013-10-04 20:23:00,68.0,63.0,29.98,SSW,205,0.0,3.0,85,0.00,,,0.04,,2013-10-05 00:23:00,
2013-10-04 20:42:00,68.0,64.0,29.99,NW,307,0.0,1.0,86,0.00,,,0.04,,2013-10-05 00:42:00,
2013-10-04 20:53:00,68.0,64.0,29.98,South,173,0.0,0.0,87,0.00,,,0.04,,2013-10-05 00:53:00,
2013-10-04 21:11:00,67.0,63.0,29.98,SSE,168,0.0,0.0,88,0.00,,,0.04,,2013-10-05 01:11:00,
2013-10-04 21:22:00,67.0,64.0,29.98,SSE,168,0.0,0.0,89,0.00,,,0.04,,2013-10-05 01:22:00,
2013-10-04 21:43:00,66.0,63.0,29.98,SSE,168,0.0,0.0,90,0.00,,,0.04,,2013-10-05 01:43:00,
2013-10-04 21:52:00,66.0,64.0,29.99,SSW,194,0.0,0.0,92,0.00,,,0.04,,2013-10-05 01:52:00,
2013-10-04 22:11:00,67.0,65.0,30.00,SSW,204,0.0,2.0,92,0.00,,,0.04,,2013-10-05 02:11:00,
2013-10-04 22:22:00,67.0,65.0,29.99,SSW,204,0.0,3.0,92,0.00,,,0.04,,2013-10-05 02:22:00,
2013-10-04 22:42:00,67.0,65.0,30.00,SSW,198,0.0,0.0,92,0.00,,,0.04,,2013-10-05 02:42:00,
2013-10-04 22:52:00,67.0,65.0,30.00,WSW,256,0.0,2.0,93,0.00,,,0.04,,2013-10-05 02:52:00,
2013-10-04 23:12:00,67.0,65.0,30.00,SSW,210,0.0,4.0,92,0.00,,,0.04,,2013-10-05 03:12:00,
2013-10-04 23:23:00,67.0,65.0,30.00,West,274,1.0,5.0,92,0.00,,,0.04,,2013-10-05 03:23:00,
2013-10-04 23:45:00,67.0,64.0,30.00,WSW,248,0.0,7.0,91,0.00,,,0.04,,2013-10-05 03:45:00,
2013-10-04 23:55:00,67.0,65.0,30.00,SE,131,2.0,5.0,92,0.01,,,0.05,,2013-10-05 03:55:00,